22 mai 2022

Temps Code Temps Temp. Vue Des nuages Vent METAR/SPECI
05:35
V
8 °C 10 km+ - 020°   020° 1 kt METAR EHVK 220335Z AUTO 02001KT 9999 SCT260 08/08 Q1018 BLU
05:25
V
8 °C 9 km 4.400 ft 020°   020° 2 kt METAR EHVK 220325Z AUTO 02002KT 9000 BR BKN044 BKN049 BKN290 08/08 Q1018 BLU
05:11
V
9 °C 9 km - 010°   010° 2 kt METAR EHVK 220311Z AUTO 01002KT 9000 BR NCD 09/08 Q1018 BLU
05:05
M
8 °C 7 km - 010°   010° 2 kt METAR EHVK 220305Z AUTO 01002KT 7000 BR NCD 08/08 Q1018 WHT
04:55
V
9 °C 10 km+ - 040°   040° 1 kt METAR EHVK 220255Z AUTO 04001KT 9999 SCT040 09/08 Q1018 BLU
04:44
V
9 °C 10 km+ - 050°   050° 2 kt METAR EHVK 220244Z AUTO 05002KT 9999 NCD 09/09 Q1018 BLU
04:32
M
9 °C 7 km - 030°   030° 2 kt METAR EHVK 220232Z AUTO 03002KT 7000 BR NCD 09/09 Q1018 WHT
04:25
V
9 °C 10 km+ - 030°   030° 1 kt METAR EHVK 220225Z AUTO 03001KT 9999 NCD 09/09 Q1018 BLU
03:55
V
9 °C 10 km+ 4.900 ft Var   Var 1 kt METAR EHVK 220155Z AUTO VRB01KT 9999 SCT043 BKN049 09/09 Q1018 BLU
03:25
V
9 °C 10 km+ - Var   Var 1 kt METAR EHVK 220125Z AUTO VRB01KT 9999 NCD 09/08 Q1018 BLU
02:55
V
10 °C 10 km+ - 040°   040° 2 kt METAR EHVK 220055Z AUTO 04002KT 9999 FEW210 10/09 Q1019 BLU
02:25
V
10 °C 10 km+ 21.000 ft Var   Var 1 kt METAR EHVK 220025Z AUTO VRB01KT 9999 FEW051 SCT058 BKN210 10/09 Q1019 BLU
01:55
V
10 °C 10 km+ 5.800 ft 070°   070° 2 kt METAR EHVK 212355Z AUTO 07002KT 9999 FEW045 SCT050 BKN058 10/09 Q1019 BLU
01:25
V
10 °C 10 km+ 5.000 ft Var   Var 2 kt METAR EHVK 212325Z AUTO VRB02KT 9999 SCT046 BKN050 BKN056 10/09 Q1019 BLU
00:55
V
10 °C 10 km+ 4.300 ft Var   000° 0 kt METAR EHVK 212255Z AUTO 00000KT 9999 BKN043 OVC047 10/09 Q1020 BLU
00:25
V
10 °C 10 km+ - 340°   340° 1 kt METAR EHVK 212225Z AUTO 34001KT 9999 NCD 10/09 Q1019 BLU

21 mai 2022

Temps Code Temps Temp. Vue Des nuages Vent METAR/SPECI
23:55
V
12 °C 10 km+ - 020°   020° 3 kt METAR EHVK 212155Z AUTO 02003KT 340V040 9999 NCD 12/10 Q1019 BLU
23:25
V
12 °C 10 km+ - 360°   360° 4 kt METAR EHVK 212125Z AUTO 36004KT 9999 FEW210 12/09 Q1020 BLU
22:55
V
12 °C 10 km+ - 340°   340° 1 kt METAR EHVK 212055Z AUTO 34001KT 9999 NCD 12/10 Q1020 BLU
22:25
V
12 °C 10 km+ - 310°   310° 2 kt METAR EHVK 212025Z AUTO 31002KT 9999 FEW240 12/09 Q1020 BLU
21:55
V
13 °C 10 km+ 31.000 ft 310°   310° 1 kt METAR EHVK 211955Z AUTO 31001KT 9999 OVC310 13/09 Q1020 BLU
21:25
V
15 °C 10 km+ 26.000 ft 340°   340° 1 kt METAR EHVK 211925Z AUTO 34001KT 9999 OVC260 15/10 Q1020 BLU
20:55
V
16 °C 10 km+ 29.000 ft Var   Var 2 kt METAR EHVK 211855Z AUTO VRB02KT 9999 FEW057 OVC290 16/09 Q1020 BLU
20:25
V
17 °C 10 km+ 12.000 ft 300°   300° 4 kt METAR EHVK 211825Z AUTO 30004KT 280V350 9999 OVC120 17/09 Q1020 BLU
19:55
V
18 °C 10 km+ 13.000 ft 320°   320° 3 kt METAR EHVK 211755Z AUTO 32003KT 270V360 9999 OVC130 18/10 Q1020 BLU
19:25
V
18 °C 10 km+ 13.000 ft 310°   310° 4 kt METAR EHVK 211725Z AUTO 31004KT 230V360 9999 OVC130 18/10 Q1020 BLU
18:55
V
18 °C 10 km+ 13.000 ft 290°   290° 5 kt METAR EHVK 211655Z AUTO 29005KT 270V010 9999 SCT036 BKN130 BKN300 18/09 Q1020 BLU
18:25
V
18 °C 10 km+ 14.000 ft 330°   330° 6 kt METAR EHVK 211625Z AUTO 33006KT 230V350 9999 FEW037 SCT046 OVC140 18/10 Q1020 BLU
17:55
V
19 °C 10 km+ 5.900 ft 280°   280° 5 kt METAR EHVK 211555Z AUTO 28005KT 210V340 9999 FEW039 SCT046 BKN059 19/09 Q1020 BLU
17:25
V
19 °C 10 km+ 14.000 ft 270°   270° 5 kt METAR EHVK 211525Z AUTO 27005KT 220V330 9999 FEW042 SCT057 OVC140 19/09 Q1020 BLU
16:55
V
18 °C 10 km+ 4.600 ft 270°   270° 8 kt METAR EHVK 211455Z AUTO 27008KT 230V340 9999 SCT041 BKN046 BKN052 18/09 Q1021 BLU
16:25
V
18 °C 10 km+ 3.900 ft 280°   280° 7 kt METAR EHVK 211425Z AUTO 28007KT 240V350 9999 BKN039 OVC044 18/09 Q1021 BLU
15:55
V
19 °C 10 km+ 4.000 ft 260°   260° 7 kt METAR EHVK 211355Z AUTO 26007KT 230V320 9999 BKN040 BKN060 OVC150 19/08 Q1021 BLU
15:25
V
18 °C 10 km+ 5.000 ft 260°   260° 10 kt METAR EHVK 211325Z AUTO 26010KT 220V300 9999 FEW041 BKN050 BKN061 18/09 Q1021 BLU
14:55
V
18 °C 10 km+ 5.400 ft 260°   260° 10 kt METAR EHVK 211255Z AUTO 26010KT 230V330 9999 FEW038 BKN054 BKN059 18/09 Q1021 BLU
14:25
V
18 °C 10 km+ 4.900 ft 270°   270° 7 kt METAR EHVK 211225Z AUTO 27007KT 230V320 9999 FEW036 SCT044 BKN049 18/09 Q1021 BLU
13:55
V
17 °C 10 km+ 3.100 ft 270°   270° 8 kt METAR EHVK 211155Z AUTO 27008KT 220V320 9999 SCT027 BKN031 BKN037 17/10 Q1021 BLU
13:25
V
17 °C 10 km+ 5.300 ft 250°   250° 11 kt METAR EHVK 211125Z AUTO 25011KT 220V280 9999 FEW033 SCT045 OVC053 17/10 Q1021 BLU
12:55
V
18 °C 10 km+ 6.100 ft 250°   250° 11 kt METAR EHVK 211055Z AUTO 25011KT 210V310 9999 FEW032 SCT056 BKN061 18/10 Q1021 BLU
12:25
V
17 °C 10 km+ 6.300 ft 270°   270° 8 kt METAR EHVK 211025Z AUTO 27008KT 190V330 9999 FEW027 SCT058 BKN063 17/10 Q1021 BLU
12:08
V
17 °C 10 km+ 3.100 ft 240°   240° 10 kt METAR EHVK 211008Z AUTO 24010KT 210V300 9999 FEW023 SCT028 BKN031 17/11 Q1021 BLU
11:59
M
16 °C 10 km+ 2.400 ft 250°   250° 9 kt METAR EHVK 210959Z AUTO 25009KT 220V320 9999 -RA BKN024 BKN033 BKN047 16/10 Q1021 WHT
11:55
M
16 °C 10 km+ 2.900 ft 260°   260° 8 kt METAR EHVK 210955Z AUTO 26008KT 230V320 9999 SCT024 BKN029 BKN033 16/10 Q1021 WHT
11:43
M
16 °C 10 km+ 2.900 ft 240°   240° 10 kt METAR EHVK 210943Z AUTO 24010KT 200V270 9999 SCT022 SCT026 BKN029 16/10 Q1021 WHT
11:25
M
16 °C 10 km+ 2.200 ft 260°   260° 8 kt METAR EHVK 210925Z AUTO 26008KT 220V310 9999 BKN022 BKN026 BKN029 16/10 Q1021 WHT
10:55
M
15 °C 10 km+ 2.300 ft 250°   250° 10 kt METAR EHVK 210855Z AUTO 25010KT 200V320 9999 SCT020 BKN023 OVC026 15/10 Q1021 WHT
10:38
M
15 °C 10 km+ 2.300 ft 250°   250° 12 kt METAR EHVK 210838Z AUTO 25012KT 210V280 9999 FEW018 BKN023 BKN026 15/10 Q1021 WHT
10:34
M
15 °C 10 km+ 2.500 ft 250°   250° 11 kt METAR EHVK 210834Z AUTO 25011KT 200V290 9999 SCT021 BKN025 BKN032 15/10 Q1021 WHT
10:25
V
16 °C 10 km+ - 250°   250° 10 kt METAR EHVK 210825Z AUTO 25010KT 220V290 9999 FEW023 SCT042 16/10 Q1021 BLU
10:19
V
15 °C 10 km+ 3.700 ft 260°   260° 10 kt METAR EHVK 210819Z AUTO 26010KT 220V290 9999 FEW019 SCT025 BKN037 15/10 Q1021 BLU
10:02
M
15 °C 10 km+ 2.200 ft 240°   240° 13 kt METAR EHVK 210802Z AUTO 24013KT 200V280 9999 FEW016 BKN022 BKN027 15/10 Q1021 WHT
09:58
V
16 °C 10 km+ 3.000 ft 240°   240° 12 kt METAR EHVK 210758Z AUTO 24012KT 200V280 9999 FEW016 SCT022 BKN030 16/11 Q1021 WHT
09:55
M
15 °C 10 km+ 2.900 ft 250°   250° 11 kt METAR EHVK 210755Z AUTO 25011KT 200V280 9999 FEW016 SCT021 BKN029 15/11 Q1021 WHT
09:29
M
14 °C 10 km+ 1.700 ft 240°   240° 10 kt METAR EHVK 210729Z AUTO 24010KT 190V290 9999 FEW014 BKN017 BKN020 14/11 Q1020 WHT
09:25
M
14 °C 10 km+ 1.700 ft 250°   250° 10 kt METAR EHVK 210725Z AUTO 25010KT 190V290 9999 SCT014 BKN017 BKN023 14/11 Q1020 GRN
09:05
M
14 °C 10 km+ 1.900 ft 240°   240° 11 kt METAR EHVK 210705Z AUTO 24011KT 210V270 9999 FEW013 SCT016 OVC019 14/11 Q1020 WHT
08:59
M
14 °C 10 km+ 1.300 ft 240°   240° 10 kt METAR EHVK 210659Z AUTO 24010KT 220V290 9999 BKN013 BKN015 OVC019 14/11 Q1020 GRN
08:55
M
14 °C 10 km+ 1.500 ft 250°   250° 11 kt METAR EHVK 210655Z AUTO 25011KT 220V280 9999 SCT013 OVC015 14/10 Q1020 GRN
08:41
M
14 °C 10 km+ 1.500 ft 240°   240° 10 kt METAR EHVK 210641Z AUTO 24010KT 210V280 9999 FEW012 BKN015 BKN021 14/11 Q1020 WHT
08:25
M
13 °C 10 km+ 1.400 ft 230°   230° 11 kt METAR EHVK 210625Z AUTO 23011KT 200V270 9999 SCT011 BKN014 BKN017 13/11 Q1020 GRN
08:18
M
13 °C 10 km+ 1.400 ft 230°   230° 10 kt METAR EHVK 210618Z AUTO 23010KT 200V260 9999 FEW011 BKN014 BKN017 13/11 Q1020 GRN
07:55
M
13 °C 10 km+ 1.300 ft 230°   230° 10 kt METAR EHVK 210555Z AUTO 23010KT 190V260 9999 FEW011 BKN013 OVC016 13/10 Q1020 GRN
07:25
M
13 °C 10 km+ 1.300 ft 220°   220° 9 kt METAR EHVK 210525Z AUTO 22009KT 190V260 9999 BKN013 OVC015 13/10 Q1020 GRN
07:11
M
12 °C 10 km+ 1.500 ft 230°   230° 9 kt METAR EHVK 210511Z AUTO 23009KT 190V260 9999 SCT013 OVC015 12/10 Q1020 GRN
07:06
M
12 °C 10 km+ 1.500 ft 230°   230° 8 kt METAR EHVK 210506Z AUTO 23008KT 190V260 9999 FEW013 BKN015 OVC018 12/10 Q1020 WHT
06:56
M
12 °C 10 km+ 1.600 ft 230°   230° 9 kt METAR EHVK 210456Z AUTO 23009KT 200V270 9999 SCT014 OVC016 12/10 Q1020 GRN
06:55
M
12 °C 10 km+ 1.600 ft 230°   230° 9 kt METAR EHVK 210455Z AUTO 23009KT 200V260 9999 FEW014 BKN016 OVC020 12/10 Q1020 WHT
06:25
M
12 °C 10 km+ 2.000 ft 230°   230° 9 kt METAR EHVK 210425Z AUTO 23009KT 210V270 9999 FEW017 BKN020 OVC023 12/10 Q1019 WHT
06:08
M
12 °C 10 km+ 1.600 ft 230°   230° 10 kt METAR EHVK 210408Z AUTO 23010KT 200V260 9999 FEW013 BKN016 BKN020 12/10 Q1019 WHT
05:59
M
12 °C 10 km+ 2.800 ft 230°   230° 9 kt METAR EHVK 210359Z AUTO 23009KT 200V260 9999 FEW014 SCT018 BKN028 12/10 Q1019 WHT
05:55
M
12 °C 10 km+ 2.900 ft 230°   230° 10 kt METAR EHVK 210355Z AUTO 23010KT 200V260 9999 SCT014 SCT018 BKN029 12/10 Q1019 GRN
05:44
M
12 °C 10 km+ 1.600 ft 230°   230° 10 kt METAR EHVK 210344Z AUTO 23010KT 200V260 9999 SCT013 BKN016 BKN024 12/10 Q1019 GRN
05:41
M
12 °C 10 km+ 1.500 ft 230°   230° 10 kt METAR EHVK 210341Z AUTO 23010KT 200V260 9999 FEW012 BKN015 BKN024 12/10 Q1019 WHT
05:25
M
12 °C 10 km+ 1.500 ft 230°   230° 10 kt METAR EHVK 210325Z AUTO 23010KT 210V270 9999 FEW013 BKN015 OVC024 12/10 Q1019 WHT
05:08
M
12 °C 10 km+ 1.600 ft 240°   240° 10 kt METAR EHVK 210308Z AUTO 24010KT 210V270 9999 FEW013 BKN016 OVC019 12/10 Q1019 WHT
04:59
M
12 °C 10 km+ 1.700 ft 240°   240° 10 kt METAR EHVK 210259Z AUTO 24010KT 210V280 9999 SCT014 BKN017 OVC020 12/10 Q1019 GRN
04:55
M
12 °C 10 km+ 1.900 ft 240°   240° 10 kt METAR EHVK 210255Z AUTO 24010KT 200V280 9999 FEW013 SCT016 OVC019 12/10 Q1019 WHT
04:40
M
12 °C 10 km+ 1.600 ft 240°   240° 11 kt METAR EHVK 210240Z AUTO 24011KT 210V270 9999 SCT014 OVC016 12/10 Q1019 GRN
04:27
M
12 °C 10 km+ 1.600 ft 240°   240° 10 kt METAR EHVK 210227Z AUTO 24010KT 200V270 9999 FEW013 OVC016 12/10 Q1019 WHT
04:25
M
12 °C 10 km+ 1.600 ft 230°   230° 10 kt METAR EHVK 210225Z AUTO 23010KT 200V270 9999 SCT014 OVC016 12/10 Q1019 GRN
03:55
M
12 °C 10 km+ 1.500 ft 230°   230° 10 kt METAR EHVK 210155Z AUTO 23010KT 9999 OVC015 12/09 Q1019 WHT
03:25
M
12 °C 10 km+ 1.500 ft 240°   240° 11 kt METAR EHVK 210125Z AUTO 24011KT 210V270 9999 OVC015 12/09 Q1019 WHT
02:56
M
12 °C 10 km+ 1.700 ft 230°   230° 11 kt METAR EHVK 210056Z AUTO 23011KT 190V270 9999 OVC017 12/09 Q1019 WHT
02:55
V
12 °C 10 km+ 6.000 ft 230°   230° 11 kt METAR EHVK 210055Z AUTO 23011KT 190V290 9999 SCT018 OVC060 12/09 Q1019 WHT
02:25
V
11 °C 10 km+ 6.500 ft 220°   220° 9 kt METAR EHVK 210025Z AUTO 22009KT 190V260 9999 BKN065 11/09 Q1019 BLU
01:55
V
10 °C 10 km+ - 230°   230° 7 kt METAR EHVK 202355Z AUTO 23007KT 180V250 9999 NCD 10/09 Q1019 BLU
01:25
V
10 °C 10 km+ - 220°   220° 7 kt METAR EHVK 202325Z AUTO 22007KT 190V260 9999 NCD 10/09 Q1019 BLU
00:55
V
10 °C 10 km+ - 220°   220° 6 kt METAR EHVK 202255Z AUTO 22006KT 190V260 9999 NCD 10/09 Q1019 BLU
00:25
V
11 °C 10 km+ - 230°   230° 7 kt METAR EHVK 202225Z AUTO 23007KT 9999 NCD 11/09 Q1019 BLU

20 mai 2022

Temps Code Temps Temp. Vue Des nuages Vent METAR/SPECI
23:55
V
12 °C 10 km+ - 250°   250° 8 kt METAR EHVK 202155Z AUTO 25008KT 220V290 9999 NCD 12/09 Q1019 BLU
23:25
V
12 °C 10 km+ - 250°   250° 7 kt METAR EHVK 202125Z AUTO 25007KT 230V300 9999 NCD 12/09 Q1019 BLU
22:57
V
13 °C 10 km+ - 260°   260° 8 kt METAR EHVK 202057Z AUTO 26008KT 220V300 9999 FEW016 SCT030 13/10 Q1019 BLU
22:55
M
13 °C 10 km+ 2.300 ft 260°   260° 7 kt METAR EHVK 202055Z AUTO 26007KT 220V300 9999 FEW016 SCT020 BKN023 13/10 Q1019 WHT
22:25
M
13 °C 10 km+ 1.900 ft 250°   250° 9 kt METAR EHVK 202025Z AUTO 25009KT 220V290 9999 SCT015 BKN019 OVC031 13/10 Q1018 WHT
21:55
M
13 °C 10 km+ 2.300 ft 260°   260° 8 kt METAR EHVK 201955Z AUTO 26008KT 220V300 9999 FEW016 SCT020 BKN023 13/10 Q1018 WHT
21:31
V
13 °C 10 km+ 3.300 ft 270°   270° 11 kt METAR EHVK 201931Z AUTO 27011KT 230V300 9999 FEW020 SCT025 BKN033 13/09 Q1017 BLU
21:25
M
13 °C 10 km+ 2.100 ft 260°   260° 11 kt METAR EHVK 201925Z AUTO 26011KT 230V310 9999 FEW014 SCT018 BKN021 13/10 Q1017 WHT
21:09
M
13 °C 10 km+ 1.300 ft 260°   260° 8 kt METAR EHVK 201909Z AUTO 26008KT 210V310 9999 BKN013 BKN040 13/10 Q1017 GRN
21:08
V
13 °C 10 km+ 3.900 ft 270°   270° 8 kt METAR EHVK 201908Z AUTO 27008KT 210V310 9999 SCT013 BKN039 BKN044 13/11 Q1017 GRN
21:03
V
13 °C 10 km+ 3.800 ft 270°   270° 9 kt METAR EHVK 201903Z AUTO 27009KT 210V310 9999 FEW013 SCT016 BKN038 13/10 Q1017 WHT
20:55
V
14 °C 10 km+ 3.600 ft 260°   260° 9 kt METAR EHVK 201855Z AUTO 26009KT 220V310 9999 FEW014 OVC036 14/10 Q1017 BLU
20:40
M
14 °C 10 km+ 2.900 ft 270°   270° 11 kt METAR EHVK 201840Z AUTO 27011KT 230V310 9999 FEW017 BKN029 OVC032 14/10 Q1017 BLU
20:25
M
14 °C 10 km+ 1.100 ft 270°   270° 9 kt METAR EHVK 201825Z AUTO 27009KT 230V300 9999 BKN011 OVC015 14/11 Q1017 GRN
20:11
M
14 °C 10 km+ 1.200 ft 270°   270° 10 kt METAR EHVK 201811Z AUTO 27010KT 240V320 9999 BKN012 OVC014 14/11 Q1016 GRN
20:10
M
14 °C 10 km+ 1.500 ft 270°   270° 10 20 kt METAR EHVK 201810Z AUTO 27010G20KT 230V320 9999 SCT012 BKN015 OVC026 14/11 Q1016 GRN
20:00
M
14 °C 10 km+ 2.400 ft 270°   270° 10 20 kt METAR EHVK 201800Z AUTO 27010G20KT 230V320 9999 FEW012 SCT014 OVC024 14/11 Q1016 GRN
19:55
M
14 °C 10 km+ 1.600 ft 270°   270° 10 20 kt METAR EHVK 201755Z AUTO 27010G20KT 240V320 9999 FEW008 SCT011 BKN016 14/11 Q1016 GRN
19:25
M
15 °C 10 km+ 1.500 ft 270°   270° 11 kt METAR EHVK 201725Z AUTO 27011KT 230V320 9999 SCT012 BKN015 OVC018 15/12 Q1015 GRN
18:55
M
15 °C 10 km+ 1.000 ft 280°   280° 9 kt METAR EHVK 201655Z AUTO 28009KT 250V330 9999 BKN010 OVC012 15/12 Q1014 GRN
18:25
I
15 °C 10 km+ 800 ft 290°   290° 8 18 kt METAR EHVK 201625Z AUTO 29008G18KT 250V330 9999 BKN008 OVC009 15/13 Q1014 GRN
17:55
I
15 °C 10 km+ 600 ft 280°   280° 13 24 kt METAR EHVK 201555Z AUTO 28013G24KT 240V340 9999 OVC006 15/13 Q1013 YLO
17:29
M
20 °C 10 km+ 1.700 ft 240°   240° 16 kt METAR EHVK 201529Z AUTO 24016KT 190V270 9999 SCT014 BKN017 BKN022 20/17 Q1012 GRN
17:25
M
20 °C 10 km+ 1.500 ft 240°   240° 15 kt METAR EHVK 201525Z AUTO 24015KT 180V270 9999 BKN015 OVC020 20/17 Q1011 REDZ WHT
16:55
M
20 °C 10 km+ 1.700 ft 210°   210° 17 kt METAR EHVK 201455Z AUTO 21017KT 150V250 9999 BKN017 OVC020 20/17 Q1011 WHT
16:35
M
20 °C 10 km+ 2.300 ft 200°   200° 16 kt METAR EHVK 201435Z AUTO 20016KT 160V250 9999 FEW015CB SCT020 BKN023 BKN090 20/17 Q1012 WHT
16:28
V
20 °C 10 km+ 9.800 ft 200°   200° 16 kt METAR EHVK 201428Z AUTO 20016KT 150V250 9999 FEW015CB SCT022 OVC098 20/17 Q1012 WHT
16:25
V
20 °C 10 km+ 8.800 ft 190°   190° 14 kt METAR EHVK 201425Z AUTO 19014KT 150V260 9999 -RA FEW015CB SCT082 BKN088 20/17 Q1012 BLU
16:08
V
20 °C 10 km+ 10.000 ft 180°   180° 13 kt METAR EHVK 201408Z AUTO 18013KT 140V230 9999 -RA FEW056 SCT063 OVC100 20/17 Q1012 BLU
16:00
V
20 °C 8 km 7.500 ft 180°   180° 8 18 kt METAR EHVK 201400Z AUTO 18008G18KT 130V220 8000 -RA SCT069 OVC075 20/18 Q1012 BLU BECMG 21006KT
15:55
M
20 °C 6 km 7.500 ft 190°   190° 5 kt METAR EHVK 201355Z AUTO 19005KT 120V220 6000 BR FEW059 BKN075 OVC081 20/18 Q1012 WHT BECMG 21006KT
15:38
M
19 °C 7 km 5.500 ft Var   Var 3 kt METAR EHVK 201338Z AUTO VRB03KT 7000 BR FEW014 SCT016 BKN055 19/17 Q1012 WHT BECMG 21006KT
15:28
M
19 °C 8 km 2.800 ft Var   Var 2 kt METAR EHVK 201328Z AUTO VRB02KT 8000 BR SCT022 BKN028 BKN031 19/17 Q1013 WHT TEMPO VRB20G35KT 3000 SHRA TSRA SCT008 SCT025CB BKN030
15:25
V
19 °C 9 km 10.000 ft 080°   080° 3 kt METAR EHVK 201325Z AUTO 08003KT 060V170 9000 BR FEW027 SCT031 OVC100 19/17 Q1012 REDZ BLU TEMPO VRB20G35KT 3000 SHRA TSRA SCT008 SCT025CB BKN030
15:08
V
18 °C 8 km 10.000 ft 090°   090° 6 kt METAR EHVK 201308Z AUTO 09006KT 050V120 8000 -RADZ FEW015CB OVC100 18/16 Q1012 BLU TEMPO VRB20G35KT 3000 SHRA TSRA SCT008 SCT025CB BKN030
14:56
M
18 °C 7 km 10.000 ft 100°   100° 6 kt METAR EHVK 201256Z AUTO 10006KT 060V160 7000 -TSRA SCT015CB SCT058 OVC100 18/16 Q1013 WHT TEMPO VRB20G35KT 3000 SHRA TSRA SCT008 SCT025CB BKN030
14:55
M
18 °C 7 km 1.500 ft 100°   100° 6 kt METAR EHVK 201255Z AUTO 10006KT 070V160 7000 -TSRA BKN015CB SCT058 BKN069 18/16 Q1013 RERA WHT TEMPO VRB20G35KT 3000 SHRA TSRA SCT008 SCT025CB BKN030
14:42
I
19 °C 3,9 km 1.500 ft 130°   130° 5 kt METAR EHVK 201242Z AUTO 13005KT 090V160 3900 +TSRA BKN015CB BKN047 BKN054 19/16 Q1014 GRN TEMPO VRB20G35KT 3000 SHRA TSRA SCT008 SCT025CB BKN030
14:35
I
19 °C 3,8 km 1.500 ft 130°   130° 5 kt METAR EHVK 201235Z AUTO 13005KT 080V160 3800 +TSRA BKN015CB SCT048 BKN053 19/15 Q1014 GRN TEMPO VRB20G35KT 3000 SHRA TSRA SCT008 SCT025CB BKN030
14:31
I
20 °C 4,5 km 1.900 ft 110°   110° 6 kt METAR EHVK 201231Z AUTO 11006KT 070V150 4500 TSRA BKN019CB SCT052 OVC068 20/15 Q1013 GRN TEMPO VRB20G35KT 3000 SHRA TSRA SCT008 SCT025CB BKN030
14:26
V
20 °C 10 km+ 6.800 ft 100°   100° 7 kt METAR EHVK 201226Z AUTO 10007KT 070V140 9999 -TSRA SCT019CB SCT051 OVC068 20/15 Q1013 WHT TEMPO VRB20G35KT 3000 SHRA TSRA SCT008 SCT025CB BKN030
14:25
V
20 °C 10 km+ 5.300 ft 100°   100° 7 kt METAR EHVK 201225Z AUTO 10007KT 070V140 9999 -RA FEW022CB BKN053 BKN069 OVC075 20/15 Q1013 BLU TEMPO VRB20G35KT 3000 SHRA TSRA SCT008 SCT025CB BKN030
14:03
V
20 °C 10 km+ 8.400 ft 110°   110° 10 kt METAR EHVK 201203Z AUTO 11010KT 070V140 9999 FEW078 BKN084 OVC089 20/14 Q1014 BLU TEMPO VRB20G35KT 3000 SHRA TSRA SCT008 SCT025CB BKN030
13:55
V
21 °C 10 km+ 9.000 ft 090°   090° 12 kt METAR EHVK 201155Z AUTO 09012KT 060V150 9999 BKN090 BKN095 OVC100 21/14 Q1014 BLU NOSIG
13:25
V
21 °C 10 km+ 14.000 ft 090°   090° 12 kt METAR EHVK 201125Z AUTO 09012KT 050V130 9999 FEW054 OVC140 21/14 Q1015 BLU NOSIG
12:55
V
20 °C 10 km+ 5.500 ft 100°   100° 9 kt METAR EHVK 201055Z AUTO 10009KT 050V160 9999 BKN055 20/13 Q1016 BLU NOSIG
12:25
V
20 °C 10 km+ 16.000 ft 090°   090° 9 kt METAR EHVK 201025Z AUTO 09009KT 030V120 9999 FEW057 OVC160 20/12 Q1017 BLU NOSIG
11:55
V
19 °C 10 km+ 15.000 ft 090°   090° 9 kt METAR EHVK 200955Z AUTO 09009KT 050V130 9999 FEW062 SCT068 OVC150 19/11 Q1018 BLU NOSIG
11:25
V
19 °C 10 km+ 15.000 ft 090°   090° 9 kt METAR EHVK 200925Z AUTO 09009KT 070V140 9999 FEW070 OVC150 19/11 Q1018 BLU NOSIG
10:55
V
18 °C 10 km+ 13.000 ft 100°   100° 7 kt METAR EHVK 200855Z AUTO 10007KT 040V130 9999 OVC130 18/10 Q1019 BLU NOSIG
10:25
V
18 °C 10 km+ 6.800 ft 090°   090° 7 kt METAR EHVK 200825Z AUTO 09007KT 050V130 9999 BKN068 OVC170 18/11 Q1019 BLU NOSIG
09:55
V
17 °C 10 km+ 18.000 ft 080°   080° 7 kt METAR EHVK 200755Z AUTO 08007KT 030V130 9999 OVC180 17/11 Q1019 BLU NOSIG
09:25
V
16 °C 10 km+ 3.600 ft 070°   070° 7 kt METAR EHVK 200725Z AUTO 07007KT 040V110 9999 SCT030 BKN036 BKN180 16/11 Q1020 BLU NOSIG
08:55
V
15 °C 10 km+ 3.400 ft 070°   070° 6 kt METAR EHVK 200655Z AUTO 07006KT 040V130 9999 BKN034 BKN250 15/12 Q1020 BLU NOSIG
08:42
V
15 °C 10 km+ 23.000 ft 070°   070° 5 kt METAR EHVK 200642Z AUTO 07005KT 030V110 9999 FEW081 OVC230 15/13 Q1020 BLU NOSIG
08:26
V
14 °C 8 km - 080°   080° 6 kt METAR EHVK 200626Z AUTO 08006KT 040V120 8000 BR SCT078 14/13 Q1020 BLU NOSIG
08:25
M
14 °C 5 km 7.700 ft 080°   080° 6 kt METAR EHVK 200625Z AUTO 08006KT 040V100 5000 BR BKN077 14/13 Q1020 WHT NOSIG
08:16
M
14 °C 5 km 7.900 ft 080°   080° 6 kt METAR EHVK 200616Z AUTO 08006KT 050V110 5000 BR SCT074 BKN079 14/13 Q1020 WHT
08:03
M
13 °C 5 km 7.600 ft 080°   080° 4 kt METAR EHVK 200603Z AUTO 08004KT 5000 BR BKN076 13/13 Q1021 WHT
08:00
I
13 °C 1,8 km 7.600 ft 070°   070° 4 kt METAR EHVK 200600Z AUTO 07004KT 050V110 1800 BR FEW000 BKN076 13/12 Q1021 YLO
07:55
L
12 °C 900 m 7.400 ft 050°   050° 3 kt METAR EHVK 200555Z AUTO 05003KT 030V110 0900 FG BKN000 OVC074 12/12 Q1021 RED
07:25
L
11 °C 150 m - 040°   040° 2 kt METAR EHVK 200525Z AUTO 04002KT 0150 FG OVC000 11/11 Q1021 RED
06:55
L
10 °C 100 m - 070°   070° 2 kt METAR EHVK 200455Z AUTO 07002KT 0100 FG OVC000 10/10 Q1021 RED
06:25
L
10 °C 150 m - Var   Var 1 kt METAR EHVK 200425Z AUTO VRB01KT 0150 FG OVC000 10/09 Q1021 RED
05:55
L
9 °C 100 m - Var   Var 1 kt METAR EHVK 200355Z AUTO VRB01KT 0100 FG OVC000 09/09 Q1021 RED
05:25
L
9 °C 150 m - 210°   210° 1 kt METAR EHVK 200325Z AUTO 21001KT 0150 FG OVC000 09/09 Q1021 RED
04:55
L
10 °C 200 m - 180°   180° 1 kt METAR EHVK 200255Z AUTO 18001KT 0200 FG OVC000 10/10 Q1021 RED
04:25
L
10 °C 150 m - Var   000° 0 kt METAR EHVK 200225Z AUTO 00000KT 0150 FG OVC000 10/10 Q1021 RED
03:55
L
10 °C 550 m - 180°   180° 1 kt METAR EHVK 200155Z AUTO 18001KT 0550 FG OVC000 10/09 Q1021 RED
03:25
L
10 °C 300 m - 180°   180° 1 kt METAR EHVK 200125Z AUTO 18001KT 0300 FG OVC000 10/10 Q1022 RED
03:13
L
10 °C 500 m 35.000 ft Var   Var 1 kt METAR EHVK 200113Z AUTO VRB01KT 0500 FG OVC350 10/10 Q1022 RED
03:11
L
10 °C 800 m 35.000 ft Var   Var 1 kt METAR EHVK 200111Z AUTO VRB01KT 0800 FG OVC350 10/10 Q1022 AMB
03:07
L
10 °C 600 m 35.000 ft Var   Var 1 kt METAR EHVK 200107Z AUTO VRB01KT 0600 FG SCT290 OVC350 10/10 Q1022 RED
02:56
L
11 °C 400 m 29.000 ft Var   Var 1 kt METAR EHVK 200056Z AUTO VRB01KT 0400 FG OVC290 11/10 Q1022 RED
02:55
I
10 °C 3 km 29.000 ft 180°   180° 1 kt METAR EHVK 200055Z AUTO 18001KT 3000 BR BKN290 OVC350 10/10 Q1022 YLO
02:44
M
10 °C 6 km 29.000 ft 180°   180° 1 kt METAR EHVK 200044Z AUTO 18001KT 6000 BR OVC290 10/10 Q1022 WHT
02:36
L
11 °C 1,1 km 30.000 ft 180°   180° 1 kt METAR EHVK 200036Z AUTO 18001KT 1100 BR BKN300 OVC350 11/10 Q1022 AMB
02:28
I
11 °C 1,8 km 35.000 ft 200°   200° 1 kt METAR EHVK 200028Z AUTO 20001KT 1800 BR FEW000/// BKN350/// 11/10 Q1022 YLO
02:25
I
11 °C 3,3 km 36.000 ft 240°   240° 1 kt METAR EHVK 200025Z AUTO 24001KT 3300 BR BKN000 BKN360 11/11 Q1022 RED
02:16
I
10 °C 4,1 km 36.000 ft 240°   240° 1 kt METAR EHVK 200016Z AUTO 24001KT 4100 BR SCT000 BKN360 10/10 Q1022 RED
02:07
M
11 °C 6 km - 260°   260° 1 kt METAR EHVK 200007Z AUTO 26001KT 6000 BR FEW000 11/11 Q1022 WHT
02:00
I
11 °C 2,7 km - 230°   230° 1 kt METAR EHVK 200000Z AUTO 23001KT 2700 BR SCT000 11/11 Q1022 RED
01:55
M
11 °C 5 km - 220°   220° 1 kt METAR EHVK 192355Z AUTO 22001KT 5000 BR NCD 11/11 Q1022 WHT
01:40
I
11 °C 4,2 km - 240°   240° 1 kt METAR EHVK 192340Z AUTO 24001KT 4200 BR FEW270 11/11 Q1022 GRN
01:30
I
12 °C 3,6 km 27.000 ft 240°   240° 2 kt METAR EHVK 192330Z AUTO 24002KT 3600 BR BKN270 12/12 Q1022 YLO
01:25
I
12 °C 4,1 km 27.000 ft 230°   230° 2 kt METAR EHVK 192325Z AUTO 23002KT 4100 BR BKN270 12/11 Q1022 GRN
00:55
M
12 °C 6 km 28.000 ft 210°   210° 1 kt METAR EHVK 192255Z AUTO 21001KT 6000 BR OVC280 12/12 Q1021 WHT
00:25
M
13 °C 7 km 33.000 ft Var   Var 1 kt METAR EHVK 192225Z AUTO VRB01KT 7000 BR BKN330 13/13 Q1021 WHT

19 mai 2022

Temps Code Temps Temp. Vue Des nuages Vent METAR/SPECI
23:59
M
14 °C 7 km - 280°   280° 3 kt METAR EHVK 192159Z AUTO 28003KT 260V320 7000 BR SCT340 14/13 Q1022 WHT
23:55
V
14 °C 8 km - 280°   280° 4 kt METAR EHVK 192155Z AUTO 28004KT 250V320 8000 BR FEW340 14/13 Q1021 BLU
Données plus anciennes

Télécharge notre application

Un accès facile à toute la météo aéronautique sur ton téléphone portable et ta tablette.
Avec de nombreuses fonctionnalités non disponibles sur le site Web, comme la prise en charge hors ligne et une liste personnelle d'aéroports.

Nous et des tiers suivons ton comportement sur Internet sur notre site Web à l'aide de cookies. Si tu continues, nous supposons que tu acceptes notre politique en matière de cookies. Apprendre plus